User: anonymous   Login
Location: Csohesd
(46.2500°N, 22.6167°E)
Time: 10:52:08
(UTC+00:00)
Language:

CZ-2D R/B - Orbit

View from above orbital plane
View from above orbital plane
View from above satellite
View from above satellite

Ground track
Ground track

The orbit data is extracted from the following two-line orbital elements,

1 28738U 05024B   22025.91565963  .00001568  00000-0  92571-4 0  9992
2 28738  97.3551  39.0295 0010479 318.7033  41.3405 15.12888427910197
Epoch (UTC): 25 January 2022 21:58:32
Eccentricity: 0.0010479
inclination: 97.3551°
perigee height: 520 km
apogee height: 534 km
right ascension of ascending node: 39.0295°
argument of perigee: 318.7033°
revolutions per day: 15.12888427
mean anomaly at epoch: 41.3405°
orbit number at epoch: 91019

The dashed part of the orbit path shows where the satellite is in the earth's shadow,  

DLR